Regional Weather Roundup
Issued by NWS Kansas City/Pleasant Hill, MO

Home | Current Version | Previous Version | Graphics & Text | Print | Product List | Glossary Off
Versions: 1 2 3 4 5 6 7 8 9 10 11 12 13 14 15 16 17 18 19 20 21 22 23 24 25 26 27 28 29 30 31 32 33 34 35 36 37 38 39 40 41 42 43 44 45 46 47 48 49 50

000
ASUS43 KEAX 272110
RWREAX

WEATHER ROUNDUP FOR EASTERN KANSAS AND NORTHWEST MISSOURI
NATIONAL WEATHER SERVICE KANSAS CITY/PLEASANT HILL MO
300 PM CST SAT DEC 27 2014

KSZ040-057-103>105-MOZ028-029-037-043-272200-
...KANSAS CITY METROPOLITAN AREA...

CITY           SKY/WX    TMP DP  RH WIND       PRES   REMARKS
K.C. INTL      CLOUDY    31  21  66 NW9       30.22R WCI  23
K.C. DOWNTOWN  CLOUDY    32  21  64 NW10      30.24R WCI  24
LEES SUMMIT    CLOUDY    32  23  69 NW14      30.22R WCI  22
OLATHE - IXD   PTSUNNY   31  21  66 NW10      30.23S WCI  22
OLATHE - OJC   PTSUNNY   32  21  64 NW12      30.22R WCI  23
LAWRENCE       MOSUNNY   33  19  56 NW12      30.25R WCI  24

$$

MOZ001>008-011>017-020>025-030>033-038>040-044>046-053-054-272200-
...NORTHERN AND CENTRAL MISSOURI...

CITY           SKY/WX    TMP DP  RH WIND       PRES   REMARKS
ST. JOSEPH     PTSUNNY   30  20  66 NW16      30.24S WCI  19
MOSBY          CLOUDY    32  23  69 W10       30.23S WCI  24
WARRENSBURG    CLOUDY    34  27  75 NW8       30.21S WCI  27
WHITEMAN AFB   CLOUDY    34  26  71 NW7       30.19F WCI  28
CLINTON        CLOUDY    34  30  86 NW8       30.21F WCI  27
SEDALIA        CLOUDY    35  28  75 NW10      30.19F WCI  27
WARSAW         NOT AVBL
MARSHALL       CLOUDY    36  28  75 W9        30.22R WCI  29
CHILLICOTHE      N/A     32  23  69 NW9       30.22R WCI  24
MOBERLY        CLOUDY    34  27  75 W12       30.20R WCI  25
KIRKSVILLE     CLOUDY    32  25  75 W12       30.18R WCI  23

$$

MOZ041-047>049-056>058-063>065-088>090-097-272200-
...EASTERN AND SOUTHERN MISSOURI...

CITY           SKY/WX    TMP DP  RH WIND       PRES   REMARKS
ST. LOUIS INTL LGT RAIN  39  36  87 NW12      30.16R WCI  32
SPIRIT OF STL  LGT RAIN  38  35  89 NW9       30.15R WCI  31
COLUMBIA       LGT SNOW  34  31  88 NW10      30.17R FOG     WCI  26
JEFFERSON CITY LGT SNOW  35  32  88 NW8       30.19S FOG     WCI  29
MEXICO         CLOUDY   N/A N/A N/A W9        30.17
HANNIBAL       CLOUDY    37  28  70 NW8       30.16R WCI  31
ROLLA          CLOUDY    34  32  92 NW10      30.13F WCI  26
LEBANON        CLOUDY    34  32  93 NW12      30.15S WCI  25
OSAGE BEACH    CLOUDY    36  30  80 NW3       30.17S
SPRINGFIELD    LGT RAIN  33  30  88 NW12      30.16F WCI  24
BRANSON        CLOUDY    36  32  87 NW8       30.16S WCI  29
NEVADA         CLOUDY    32  27  80 W8        30.23R WCI  25
JOPLIN         CLOUDY    31  28  89 NW9       30.23R WCI  23
WEST PLAINS    CLOUDY    39  36  89 N5        30.12S

$$

IAZ060-094-KSZ022-034>040-054-083-096-NEZ052-066-093-272200-
...KANSAS...SOUTHEAST NEBRASKA AND IOWA...

CITY           SKY/WX    TMP DP  RH WIND       PRES   REMARKS
TOPEKA         SUNNY     36  19  50 W9G21     30.25R WCI  29
MANHATTAN      SUNNY     31  18  58 VRB6      30.27R WCI  25
EMPORIA        MOSUNNY   33  17  51 NW14G21   30.24R WCI  23
CHANUTE        PTSUNNY   34  21  59 NW12      30.25R WCI  25
WICHITA        MOSUNNY   36  17  46 N12       30.27S WCI  28
OMAHA          MOSUNNY   27  17  66 W8        30.24S WCI  19
LINCOLN        SUNNY     28  18  66 NW9       30.25S WCI  19
FALLS CITY     MOSUNNY   30  19  63 NW10G18   30.24R WCI  21
LAMONI         CLOUDY    28  22  78 W13       30.19R WCI  17
DES MOINES     PTSUNNY   29  20  69 NW18      30.19R WCI  16

$$



USA.gov is the U.S. government's official web portal to all federal, state and local government web resources and services.